Volver al catálogo

COSMOS 1367

LostNavegaciónHEO
NORAD 13205·PAYLOAD·🇷🇺 Russia

Lanzado May 20, 1982 desde Plesetsk Cosmodrome

Loading…

Próximos Pases (próximas 24 horas)

TLE

ObsoletoSource: Space-Track

Época: Oct 31, 2025, 17:49 UTC

1 13205U 82045A   25304.74244421  .00000044  00000-0  00000-0 0  9990
2 13205  71.9842  75.1735 4968098 329.5011   9.1373  2.00464983318233

Sigue COSMOS 1367 en tiempo real con AllMySat

Download on the App Store